www.pogodaiklimat.ru

Погода и климат >> Архив погоды >> Япония >> Кумугая


ПОГОДА в Кумугае

  • Прогноз погоды в Кумугае
  • Монитор погоды в Кумугае

АРХИВ ПОГОДЫ в Кумугае

Время (UTC), дата Ветер
(напр.,м/с)
 
Видим.   Явления Облачность Т
(С)
Тd
(С)
f
(%)
Тe
(С)
Тes
(С)
Комфортность P
(гПа)
Po
(гПа)
Тmin
(С)
Tmax
(С)
R
(мм)
R24
(мм)
S
(см)
22 11.06 СЗ 2 20 км н/о +17.2 +14.5 84 +18 +18 1008.8 1005.1
23 11.06 С 2 20 км н/о +17.6 +12.7 73 +18 +18 1009.1 1005.4
00 12.06 В 2 20 км н/о +19.0 +13.0 68 +21 +21 комфорт 1009.0 1005.3 +15.6 0.5
01 12.06 В 2 20 км н/о +19.7 +12.2 62 +22 +22 комфорт 1008.9 1005.2
02 12.06 В 1 20 км н/о +20.4 +12.4 60 +24 +24 комфорт 1008.7 1005.0
03 12.06 ЮВ 2 20 км н/о +21.1 +13.0 60 +23 +23 комфорт 1008.4 1004.7
04 12.06 В 3 20 км н/о +22.1 +12.9 56 +25 +25 комфорт 1007.8 1004.1
05 12.06 СВ 3 20 км н/о +22.2 +13.0 56 +25 +25 комфорт 1007.6 1003.9
06 12.06 В 3 20 км н/о +23.0 +13.5 55 +26 +26 жарко 1007.5 1003.8
07 12.06 СВ 3 18 км н/о +22.5 +13.8 58 +26 +26 жарко 1007.4 1003.7
08 12.06 В 4 20 км н/о +21.7 +14.4 63 +25 +25 комфорт 1007.9 1004.2
09 12.06 ЮВ 3 20 км н/о +21.3 +14.0 63 +24 +24 комфорт 1008.5 1004.8
10 12.06 В 3 20 км н/о +20.0 +13.9 68 +22 +22 комфорт 1009.1 1005.4
11 12.06 ЮВ 3 20 км н/о +19.6 +13.8 69 +22 +22 комфорт 1009.8 1006.1
12 12.06 В 3 20 км н/о +18.7 +13.6 72 +20 +20 1010.5 1006.8 +23.6
13 12.06 В 3 20 км н/о +17.8 +13.7 77 +18 +18 1011.0 1007.3
14 12.06 В 3 20 км н/о +17.0 +13.7 81 +17 +17 1011.2 1007.4
15 12.06 В 3 20 км н/о +17.2 +13.5 79 +17 +17 1011.3 1007.5
16 12.06 Ю 2 20 км н/о +17.0 +13.5 80 +17 +17 1011.2 1007.4
17 12.06 Ю 1 20 км н/о +16.8 +13.7 82 +18 +18 1011.4 1007.6
18 12.06 ЮВ 1 20 км н/о +16.9 +13.6 81 +18 +18 1011.5 1007.7
19 12.06 З 1 20 км н/о +16.5 +14.0 85 +17 +17 1011.8 1008.0
20 12.06 СЗ 2 15 км н/о +15.4 +13.8 90 +15 +15 1012.4 1008.6
21 12.06 СЗ 2 16 км н/о +16.5 +14.0 85 +17 +17 1012.5 1008.7
22 12.06 З 2 18 км н/о +18.3 +13.4 73 +19 +19 1012.7 1009.0
23 12.06 С 2 20 км н/о +19.8 +13.7 68 +22 +22 комфорт 1012.6 1008.9
00 13.06 С 1 18 км н/о +22.4 +15.5 65 +26 +26 жарко 1012.9 1009.2 +15.3
01 13.06 В 3 20 км н/о +23.8 +15.3 59 +27 +27 жарко 1012.6 1008.9
02 13.06 ЮВ 2 20 км н/о +24.7 +13.0 48 +27 +27 жарко 1012.5 1008.9
03 13.06 Ю 2 20 км н/о +24.9 +12.8 47 +27 +27 жарко 1012.0 1008.4
04 13.06 Ю 4 20 км н/о +27.3 +14.3 45 +30 +30 душно 1011.4 1007.8
05 13.06 ЮВ 3 20 км н/о +28.2 +13.3 40 +30 +30 жарко 1010.8 1007.2
07 13.06 Ю 4 20 км н/о +28.0 +13.9 42 +30 +30 жарко 1010.6 1007.0
08 13.06 ЮВ 4 20 км н/о +27.0 +15.1 48 +30 +30 душно 1010.8 1007.2
09 13.06 ЮВ 5 20 км н/о +25.1 +16.3 58 +28 +28 жарко 1011.3 1007.7
10 13.06 ЮВ 4 20 км н/о +23.1 +16.9 68 +28 +28 душно 1012.4 1008.7
11 13.06 ЮВ 3 20 км н/о +22.1 +16.2 69 +26 +26 душно 1012.9 1009.2
12 13.06 ЮВ 3 20 км н/о +21.4 +15.7 70 +25 +25 комфорт 1013.6 1009.9 +29.1
13 13.06 ЮВ 3 20 км н/о +21.1 +16.1 73 +24 +24 комфорт 1013.8 1010.1
14 13.06 В 2 20 км н/о +20.6 +16.4 77 +24 +24 комфорт 1014.0 1010.3
15 13.06 В 2 20 км н/о +20.5 +16.7 79 +25 +25 комфорт 1014.1 1010.4
16 13.06 СВ 2 20 км н/о +20.4 +16.7 79 +24 +24 комфорт 1014.2 1010.5
17 13.06 СВ 2 20 км н/о +20.2 +16.7 80 +24 +24 комфорт 1014.2 1010.5
18 13.06 СВ 2 20 км н/о +19.9 +16.7 82 +23 +23 комфорт 1014.2 1010.5
19 13.06 СВ 2 20 км н/о +19.7 +16.7 83 +23 +23 комфорт 1014.1 1010.4
20 13.06 С 1 20 км н/о +18.8 +16.6 87 +21 +21 комфорт 1014.7 1011.0
21 13.06 С 1 20 км н/о +20.1 +17.1 83 +24 +24 комфорт 1014.4 1010.7
22 13.06 СВ 2 18 км н/о +20.8 +16.8 78 +25 +25 комфорт 1014.4 1010.7
23 13.06 В 2 17 км н/о +22.6 +18.0 75 +28 +28 душно 1014.3 1010.6
00 14.06 В 2 20 км н/о +22.7 +17.4 72 +28 +28 душно 1014.3 1010.6 +18.5
01 14.06 В 2 20 км н/о +24.4 +17.4 65 +28 +28 душно 1014.0 1010.3
02 14.06 Ю 3 20 км н/о +26.7 +16.9 55 +30 +30 душно 1013.5 1009.9
03 14.06 ЮВ 4 20 км н/о +26.9 +14.7 47 +29 +29 жарко 1012.7 1009.1
04 14.06 ЮВ 5 20 км н/о +27.5 +14.9 46 +30 +30 жарко 1012.1 1008.5
05 14.06 Ю 5 20 км н/о +28.1 +15.4 46 +31 +31 душно 1011.4 1007.8
06 14.06 ЮВ 5 20 км н/о +27.2 +15.3 48 +30 +30 душно 1011.4 1007.8
07 14.06 Ю 5 20 км н/о +26.2 +12.7 43 +28 +28 жарко 1011.2 1007.6
08 14.06 Ю 5 20 км н/о +24.7 +13.0 48 +27 +27 жарко 1011.2 1007.6
09 14.06 ЮВ 5 20 км н/о +23.5 +12.8 51 +26 +26 жарко 1011.6 1007.9
10 14.06 ЮВ 5 20 км н/о +22.8 +12.7 53 +26 +26 жарко 1012.0 1008.3
11 14.06 ЮВ 5 20 км н/о +22.1 +15.2 65 +26 +26 душно 1012.3 1008.6
12 14.06 ЮВ 4 20 км н/о +21.7 +15.6 68 +25 +25 комфорт 1012.4 1008.7 +29.3
13 14.06 ЮВ 4 20 км н/о +21.5 +15.4 68 +25 +25 комфорт 1012.2 1008.5
14 14.06 ЮВ 4 20 км слаб. дождь н/о +21.3 +15.4 69 +24 +24 комфорт 1011.6 1007.9
15 14.06 В 3 16 км слаб. дождь н/о +20.4 +16.7 79 +24 +24 комфорт 1010.7 1007.0
16 14.06 В 2 19 км слаб. дождь н/о +20.0 +17.2 84 +23 +23 комфорт 1010.7 1007.0
17 14.06 В 3 12 км слаб. дождь н/о +19.4 +17.7 90 +22 +22 комфорт 1009.9 1006.2
18 14.06 В 3 9000 м дождь н/о +18.2 +15.5 84 +19 +19 1009.6 1005.9 3
19 14.06 СВ 3 9000 м слаб. дождь н/о +16.6 +15.5 93 +16 +16 1009.6 1005.8
20 14.06 С 2 6000 м слаб. дождь н/о +16.5 +15.7 95 +17 +17 1009.5 1005.7
21 14.06 З 1 2800 м дождь н/о +15.8 +15.3 97 +16 +16 1009.8 1006.0
22 14.06 В 2 5000 м дождь н/о +15.7 +15.1 96 +16 +16 1009.7 1005.9
23 14.06 СВ 2 7000 м слаб. дождь н/о +16.0 +15.2 95 +16 +16 1008.6 1004.8
00 15.06 СВ 4 4000 м слаб. дождь н/о +16.1 +15.5 96 +15 +15 1007.6 1003.8 +15.6 24
01 15.06 СВ 4 4200 м слаб. дождь н/о +16.4 +15.8 96 +16 +16 1006.8 1003.1
02 15.06 СВ 4 3000 м слаб. дождь н/о +16.7 +16.1 96 +16 +16 1005.5 1001.8
03 15.06 СВ 4 2500 м слаб. дождь н/о +16.4 +15.8 96 +16 +16 1004.1 1000.4
04 15.06 СВ 3 3800 м дождь н/о +16.6 +16.1 97 +16 +16 1002.8 999.1
05 15.06 СВ 4 11 км слаб. дождь н/о +16.8 +16.2 96 +16 +16 1000.7 997.0
06 15.06 С 3 17 км слаб. дождь н/о +17.0 +16.0 94 +17 +17 999.4 995.7 13
07 15.06 З 2 1800 м дождь н/о +16.7 +16.4 98 +17 +17 998.0 994.3
08 15.06 СЗ 2 1800 м слаб. дождь н/о +16.7 +16.4 98 +17 +17 996.0 992.3
09 15.06 З 3 2300 м дождь н/о +16.6 +16.5 99 +16 +16 995.9 992.2
10 15.06 З 2 20 км слаб. дождь н/о +16.8 +16.5 98 +17 +17 995.1 991.4
11 15.06 З 2 12 км слаб. дождь н/о +17.0 +16.5 97 +17 +17 994.1 990.4
12 15.06 З 2 11 км слаб. дождь н/о +16.9 +16.6 98 +17 +17 993.6 989.9 +17.1 18
13 15.06 ЮВ 1 7000 м слаб. дождь н/о +16.8 +16.5 98 +18 +18 992.7 989.0
14 15.06 СВ 1 8000 м в посл. час дождь н/о +17.0 +16.7 98 +18 +18 991.8 988.1
15 15.06 СВ 1 5000 м дымка {дождь} н/о +17.0 +16.7 98 +18 +18 990.9 987.2
16 15.06 СВ 2 2900 м дождь н/о +17.1 +17.0 99 +18 +18 990.1 986.4
17 15.06 СЗ 1 5000 м слаб. дождь н/о +16.8 +16.7 99 +18 +18 988.7 985.0
18 15.06 СЗ 1 6000 м в посл. час дождь н/о +16.9 +16.8 99 +18 +18 987.8 984.1 5
19 15.06 З 2 6000 м дымка н/о +16.9 +16.8 99 +17 +17 987.7 984.0
20 15.06 З 3 15 км в посл. час дождь н/о +16.9 +16.6 98 +17 +17 987.6 983.9
21 15.06 З 2 20 км слаб. дождь н/о +17.5 +16.9 96 +18 +18 988.1 984.4
22 15.06 З 2 20 км слаб. дождь н/о +18.7 +17.6 93 +20 +20 988.1 984.5
23 15.06 З 2 20 км в посл. час дождь н/о +21.3 +17.5 79 +25 +25 комфорт 988.0 984.4
00 16.06 ЮЗ 2 20 км {дождь} н/о +23.2 +17.7 71 +29 +29 душно 988.4 984.8 +16.7 5
01 16.06 СЗ 2 20 км н/о +25.7 +17.6 61 +30 +30 душно 988.6 985.1
02 16.06 ЮЗ 3 20 км н/о +27.8 +17.7 54 +32 +32 душно 988.8 985.3
03 16.06 ЮЗ 4 20 км н/о +30.2 +15.5 41 +33 +33 душно 988.4 984.9
04 16.06 З 7 20 км н/о +31.3 +11.7 30 +32 +32 жарко 988.7 985.2
05 16.06 З 7 20 км н/о +31.4 +11.2 29 +32 +32 жарко 989.5 986.0
06 16.06 З 6 20 км н/о +30.4 +10.9 30 +31 +31 жарко 990.3 986.8
07 16.06 СЗ 7 20 км н/о +29.7 +10.8 31 +30 +30 жарко 991.4 987.9
08 16.06 СЗ 4 20 км н/о +27.2 +13.2 42 +29 +29 жарко 992.6 989.1
09 16.06 СЗ 4 20 км н/о +25.3 +12.9 46 +27 +27 жарко 994.3 990.7
10 16.06 СЗ 4 20 км н/о +23.3 +11.7 48 +26 +26 жарко 996.0 992.4
11 16.06 СЗ 4 20 км н/о +22.1 +11.2 50 +24 +24 комфорт 997.5 993.9
12 16.06 СЗ 4 20 км н/о +21.1 +11.4 54 +23 +23 комфорт 998.9 995.3 +31.9
13 16.06 СЗ 3 20 км н/о +20.4 +11.6 57 +23 +23 комфорт 999.8 996.1
14 16.06 СЗ 3 20 км н/о +20.1 +11.6 58 +22 +22 комфорт 1000.7 997.0
15 16.06 З 3 20 км н/о +20.1 +11.3 57 +22 +22 комфорт 1001.0 997.3
16 16.06 СЗ 3 20 км н/о +19.2 +11.0 59 +20 +20 1001.4 997.7
17 16.06 СЗ 4 20 км н/о +19.2 +11.0 59 +20 +20 1002.0 998.3
18 16.06 СЗ 3 20 км н/о +19.2 +10.5 57 +20 +20 1003.1 999.4
19 16.06 СЗ 5 20 км н/о +19.5 +10.0 54 +20 +20 1003.9 1000.2
20 16.06 СЗ 5 20 км н/о +20.0 +9.9 52 +21 +21 комфорт 1004.9 1001.2
21 16.06 СЗ 6 20 км н/о +20.3 +9.9 51 +22 +22 комфорт 1005.8 1002.1
22 16.06 З 5 20 км н/о +21.0 +9.9 49 +23 +23 комфорт 1008.0 1004.3
23 16.06 СЗ 5 20 км н/о +21.8 +10.0 47 +23 +23 комфорт 1008.9 1005.2
00 17.06 СЗ 5 20 км н/о +22.4 +10.2 46 +24 +24 комфорт 1009.6 1005.9 +18.9
01 17.06 СЗ 4 20 км н/о +24.0 +11.0 44 +25 +25 комфорт 1009.6 1006.0
02 17.06 СЗ 4 20 км н/о +24.0 +10.7 43 +25 +25 комфорт 1009.6 1006.0
03 17.06 СЗ 4 20 км н/о +25.5 +11.3 41 +27 +27 жарко 1009.3 1005.7
04 17.06 СЗ 5 20 км н/о +26.5 +11.4 39 +28 +28 жарко 1008.9 1005.3
05 17.06 СЗ 5 20 км н/о +27.5 +10.7 35 +28 +28 жарко 1008.9 1005.3
06 17.06 СЗ 5 20 км н/о +27.3 +9.2 32 +27 +27 жарко 1008.8 1005.2
07 17.06 С 5 20 км н/о +27.2 +9.1 32 +27 +27 жарко 1008.9 1005.3
08 17.06 С 4 20 км н/о +26.8 +8.7 32 +27 +27 жарко 1009.1 1005.5
09 17.06 С 3 20 км н/о +26.1 +8.6 33 +26 +26 жарко 1009.9 1006.3
10 17.06 СЗ 2 20 км н/о +24.7 +9.5 38 +25 +25 комфорт 1010.5 1006.9
11 17.06 З 1 20 км н/о +24.3 +9.5 39 +25 +25 комфорт 1011.3 1007.7
12 17.06 В 3 20 км н/о +23.0 +12.6 52 +26 +26 жарко 1012.4 1008.7 +27.9
13 17.06 СВ 2 20 км н/о +21.8 +12.6 56 +24 +24 комфорт 1012.8 1009.1
14 17.06 СЗ 2 20 км н/о +20.4 +13.1 63 +23 +23 комфорт 1013.1 1009.4
15 17.06 З 2 20 км н/о +20.4 +12.4 60 +23 +23 комфорт 1013.6 1009.9
16 17.06 З 3 20 км н/о +19.7 +12.2 62 +22 +22 комфорт 1013.6 1009.9
17 17.06 СЗ 2 20 км н/о +19.1 +12.6 66 +21 +21 комфорт 1013.6 1009.9
18 17.06 З 2 20 км н/о +18.5 +12.3 67 +20 +20 1013.9 1010.2
19 17.06 З 2 20 км н/о +18.4 +12.4 68 +20 +20 1014.1 1010.4
20 17.06 СЗ 2 20 км н/о +18.0 +12.5 70 +19 +19 1014.4 1010.6
21 17.06 СЗ 2 20 км н/о +18.7 +12.7 68 +20 +20 1014.3 1010.6
22 17.06 СЗ 3 20 км н/о +19.5 +12.8 65 +21 +21 комфорт 1014.4 1010.7
23 17.06 С 2 20 км н/о +20.9 +13.6 63 +24 +24 комфорт 1014.1 1010.4
00 18.06 СЗ 2 10 км н/о +22.9 +15.5 63 +27 +27 душно 1013.5 1009.8 +18.0
01 18.06 ЮВ 2 20 км н/о +24.0 +15.0 57 +27 +27 жарко 1013.1 1009.4
02 18.06 ЮВ 3 20 км н/о +25.5 +15.5 54 +29 +29 душно 1012.4 1008.8
03 18.06 Ю 3 20 км н/о +28.0 +16.0 48 +31 +31 душно 1011.3 1007.7
04 18.06 Ю 3 20 км н/о +28.2 +15.2 45 +31 +31 душно 1010.7 1007.1
05 18.06 ЮВ 3 20 км н/о +28.5 +14.4 42 +31 +31 душно 1009.7 1006.1
06 18.06 В 3 20 км н/о +28.5 +14.4 42 +31 +31 душно 1009.2 1005.6
07 18.06 ЮВ 5 20 км н/о +27.8 +15.8 48 +31 +31 душно 1008.9 1005.3
08 18.06 ЮВ 5 20 км н/о +27.1 +16.7 53 +31 +31 душно 1008.9 1005.3
09 18.06 Ю 4 20 км н/о +26.0 +16.3 55 +29 +29 душно 1009.0 1005.4
10 18.06 Ю 4 20 км н/о +24.5 +16.0 59 +28 +28 душно 1009.1 1005.5
11 18.06 ЮВ 2 20 км н/о +23.7 +17.2 67 +28 +28 душно 1009.5 1005.8
12 18.06 В 2 20 км н/о +23.4 +17.2 68 +29 +29 душно 1009.9 1006.2 +29.1
13 18.06 В 2 20 км н/о +23.2 +17.0 68 +28 +28 душно 1010.3 1006.6
14 18.06 СВ 3 20 км н/о +22.3 +17.9 76 +27 +27 душно 1010.4 1006.7
15 18.06 СВ 2 20 км н/о +21.3 +18.3 83 +26 +26 душно 1010.2 1006.5
16 18.06 СВ 2 20 км н/о +21.0 +17.8 82 +26 +26 душно 1009.8 1006.1
17 18.06 С 1 20 км н/о +20.5 +17.7 84 +25 +25 комфорт 1009.6 1005.9
18 18.06 С 1 20 км н/о +20.8 +17.4 81 +26 +26 душно 1009.7 1006.0
19 18.06 СВ 1 20 км н/о +20.6 +17.4 82 +25 +25 комфорт 1009.6 1005.9
20 18.06 штиль 0 20 км н/о +20.5 +17.3 82 +24 +24 комфорт 1009.6 1005.9
21 18.06 СЗ 1 20 км н/о +20.9 +17.9 83 +26 +26 душно 1009.4 1005.7
22 18.06 СЗ 1 13 км н/о +21.4 +18.0 81 +26 +26 душно 1009.2 1005.5

 

Местоположение метеостанции Кумугая (Япония): широта 36.15 долгота 139.38 высота над уровнем моря 31 м.

В архиве по умолчанию представлена погода в Кумугае за последнюю неделю. Архивные данные за месяц целиком и за предыдущие месяцы, начиная с января 2011 года, Вы можете получить, выбрав интересующий диапазон дат из раскрывающегося списка и нажав кнопку "Ввод!".


*Определитесь, кто Вы:
робот инопланетянин человек

Внимание! Время в таблицах - всемирное. Для получения местного времени необходимо прибавить поправку, которая равна 9 ч.

Смотрите также архив погоды в соседних городах и на ближайших метеорологических станциях:

Погода в Чичибу (Япония) (34 км)
Погода в Маебаши (Япония) (40 км)
Погода в Уцуномии (Япония) (62 км)
Погода в Токио (Япония) (62 км)
Погода в Никко (Япония) (65 км)
Погода в Каруидзаве (Япония) (78 км)
Погода в Иокогаме (Япония) (84 км)
Погода в Тибе (Япония) (89 км)
Погода на Озере Кавагучи (Япония) (91 км)
Погода в Кофу (Япония) (92 км)

Пояснения к столбцам:

Ветер - указаны скорость ветра в м/с - средняя за 10 мин, порывы в срок и между сроками (в фигурных скобках) и направление, откуда дует ветер: С - северный, СВ - северо-восточный, В - восточный, ЮВ - юго-восточный, Ю - южный, ЮЗ - юго-западный, З - западный, СЗ - северо-западный.
Видимость - горизонтальная дальность видимости в метрах или километрах. При видимости от 1 до 10 км при отсутствии осадков обычно наблюдается дымка, при ухудшении видимости до 1 км и менее - туман. В сухую погоду видимость может ухудшаться дымом, пылью или мглою.
Явления - указаны атмосферные явления, наблюдавшиеся в срок или в последний час перед сроком; фигурными скобками обозначены явления, наблюдавшиеся между сроками (за 1-3 часа до срока); квадратными скобками обозначены град или гололедные отложения с указанием их диаметра в мм.
Облачность - указаны через наклонную черту общая и нижняя облачность в баллах и высота нижней границы облаков в метрах; квадратными скобками обозначены формы облаков: Ci - перистые, Cs - перисто-слоистые, Cc - перисто-кучевые, Ac - высококучевые, As - высокослоистые, Sc - слоисто-кучевые, Ns - слоисто-дождевые, Cu - кучевые, Cb - кучево-дождевые. Подробнее классификацию облаков см. в Атласе облаков (PDF).
T - Температура воздуха - температура, измеренная на высоте 2 м над землей.
Td - Температура точки росы - температура, при понижении до которой содержащийся в воздухе водяной пар достигнет насыщения.
f - Относительная влажность воздуха - влажноcть воздуха, измеренная на высоте 2 м над землей.
Te - Эффективная температура - температура, которую ощущает одетый по сезону человек в тени. Характеристика душности погоды. При расчете учитывается влияние влажности воздуха и скорости ветра на теплоощущения человека.
Tes - Эффективная температура на солнце - температура, которую ощущает человек, с поправкой на солнечный нагрев. Характеристика знойности погоды. Зависит от высоты солнца над горизонтом, облачности и скорости ветра. Ночью, в пасмурную погоду, а также при ветре 12 м/с и более поправка равна нулю.
P - Атмосферное давление - приведенное к уровню моря атмосферное давление.
Po - Атмосферное давление - измеренное на уровне метеостанции атмосферное давление.
Tmin - Минимальная температура - минимум температуры воздуха на высоте 2 м над землей.
Tmax - Максимальная температура - максимум температуры воздуха на высоте 2 м над землей.
R - Количество осадков - Количество выпавших осадков за период времени, мм. При наведении курсора мыши на число - период времени, за который выпало указанное количество осадков.
R24 - Количество осадков - Количество выпавших осадков за 24 часа, мм.
S - Снежный покров - Высота снежного покрова, см. При наведении курсора мыши на число - состояние снежного покрова и степень покрытия местности в баллах.